Location: Huesca
(42.1318°N, 0.4078°W)
Time: 17:07:36
(UTC+02:00)

RS-15 - Pass Details

Date: 28 April 2024
Orbit: 1900 x 2145 km, 64.8° (Epoch: 24 April)

Event Time Altitude Azimuth Distance (km) Brightness Sun altitude
Rises 00:13:49 0° 269° (W) 5,554 10.8 -28.6°
Reaches altitude 10° 00:18:07 10° 281° (W) 4,517 10.4 -29.0°
Maximum altitude 00:27:40 28° 337° (NNW) 3,212 9.7 -29.8°
Drops below altitude 10° 00:36:56 10° 33° (NNE) 4,363 10.2 -30.5°
Sets 00:41:02 0° 45° (NE) 5,335 10.6 -30.8°
